Theta_e
297 297 298 298 299 298 298 298 297 298 298 298 298 299 300 300 300 301 300 300 302 305 305 305 305 306 306 307 309 312 314 314 322 325 326 329 328 326 326 325 325 338 337 336 336 337 338 334 331 333 332 335 338 338
296 297 297 297 297 297 296 296 296 297 297 297 297 298 300 300 299 300 301 300 301 303 304 304 304 304 305 305 306 310 314 311 316 312 316 318 326 331 330 325 325 339 335 335 334 334 333 334 333 331 331 336 336 335
297 297 296 297 296 295 297 296 296 296 296 298 297 298 299 300 300 300 300 301 301 303 303 304 305 305 305 305 305 305 312 311 311 310 309 317 330 330 334 334 335 333 333 333 338 340 336 335 333 332 331 334 333 332
297 297 297 297 296 296 296 296 297 298 297 296 297 298 299 300 300 300 300 300 301 302 305 304 304 305 305 306 306 304 305 310 311 311 311 315 328 328 334 330 332 334 333 333 337 336 335 334 330 327 332 333 332 331
296 297 296 297 297 297 296 296 296 298 297 296 298 299 299 299 299 299 300 300 300 301 305 304 303 303 303 305 307 305 305 306 312 314 314 315 326 328 329 328 332 329 332 336 339 335 335 334 330 328 329 331 331 331
296 296 296 297 297 297 296 297 296 296 296 297 298 299 299 299 298 299 301 300 300 302 304 304 303 304 307 309 309 309 310 310 310 313 316 317 323 325 330 331 327 325 326 324 328 329 333 332 332 331 330 330 329 329
296 296 295 296 297 297 296 296 297 297 298 298 297 297 297 299 299 299 302 300 300 302 304 305 307 309 308 309 309 308 309 309 310 313 318 320 322 322 326 328 327 324 328 325 325 328 329 329 330 328 330 329 328 328
295 296 296 296 296 296 297 296 296 297 297 298 296 296 297 298 298 298 299 299 300 300 303 306 308 311 310 310 310 309 311 311 312 312 315 319 318 322 325 326 325 326 326 325 325 325 325 325 330 328 327 327 326 326
294 295 296 296 296 296 297 297 297 297 297 297 297 295 297 298 299 300 300 301 300 301 303 306 309 312 311 310 311 312 312 313 312 312 311 313 320 323 325 325 323 323 324 326 323 323 324 326 329 329 327 326 325 325
294 294 295 295 296 296 296 296 297 297 296 295 296 298 299 300 300 301 300 303 303 303 303 305 305 310 310 312 313 314 313 314 314 313 312 312 313 317 322 321 321 322 323 321 327 327 326 329 330 330 329 325 324 324
295 295 296 295 295 296 296 296 297 296 296 297 298 299 300 301 301 301 302 303 304 305 304 304 304 306 310 312 313 313 314 312 313 313 313 314 313 314 321 322 320 321 321 320 322 326 327 328 328 326 326 326 325 324
294 295 295 295 295 296 297 297 296 296 297 298 298 299 299 301 302 303 302 305 305 305 306 305 306 306 310 311 313 313 313 314 312 313 313 312 314 320 320 320 321 319 319 319 319 320 321 325 327 326 326 325 325 324
296 295 295 294 295 296 297 296 296 296 295 297 299 300 298 302 302 303 305 306 307 307 307 307 307 309 310 311 312 313 314 314 314 315 312 311 315 320 318 318 319 318 317 317 317 318 319 319 320 325 324 326 324 323
295 295 296 295 295 296 297 296 296 295 296 297 302 303 304 304 304 305 306 309 310 309 308 308 309 310 310 310 312 313 313 313 314 314 312 318 318 317 316 316 316 316 316 316 315 315 315 319 318 321 325 325 323 322
295 295 295 295 296 296 296 296 296 297 298 301 302 302 303 305 305 306 306 305 308 305 310 310 310 311 311 311 311 311 313 314 312 312 316 316 316 316 315 315 315 315 315 315 315 314 312 315 317 316 323 323 323 322
295 295 296 295 295 296 296 296 297 297 300 301 303 304 305 306 307 308 304 304 305 309 309 309 310 311 311 311 312 312 312 313 315 316 314 313 314 315 314 315 315 315 316 317 319 319 318 317 314 313 315 321 320 322
295 297 296 294 295 296 296 297 299 300 301 302 305 305 305 306 307 307 307 309 308 309 310 310 311 310 311 312 311 313 313 314 312 313 313 313 313 312 312 314 314 314 316 317 318 318 320 320 319 316 317 319 322 322
296 297 295 295 296 297 298 297 300 302 303 303 304 306 306 307 307 307 307 309 310 310 310 310 310 312 312 311 313 311 311 312 312 312 313 311 311 311 311 312 312 313 314 316 317 318 318 319 321 321 321 323 323 321
298 296 295 295 298 299 301 301 302 303 304 305 306 307 307 307 306 307 308 309 309 309 310 310 310 313 312 313 308 310 312 311 312 312 312 311 310 311 310 309 311 311 313 315 318 319 318 319 320 320 320 320 320 319
296 295 295 295 296 299 303 304 302 302 302 304 306 307 307 308 308 309 309 309 310 310 310 310 311 312 311 310 309 309 309 310 310 310 311 310 309 310 310 311 311 310 310 313 316 317 318 319 319 317 318 320 318 317
297 297 295 296 299 298 303 305 305 305 306 306 307 307 309 308 309 310 311 310 310 310 311 309 310 310 309 309 308 308 307 308 310 310 310 310 310 310 311 310 309 309 310 310 315 314 316 318 316 317 315 315 317 317
300 297 300 299 301 303 304 304 305 305 306 306 308 308 309 310 309 309 310 309 308 307 307 306 304 304 306 306 304 304 305 305 305 307 307 307 308 309 309 310 310 309 309 310 314 316 316 316 316 315 313 312 312 312
299 300 302 303 303 301 301 303 305 306 307 308 308 309 309 309 309 307 307 309 305 303 303 301 300 300 300 300 300 301 302 303 304 305 307 307 307 307 308 309 309 309 310 311 314 314 314 314 313 314 313 313 312 310
300 301 301 303 303 302 304 306 306 306 307 307 307 306 308 309 308 308 308 306 302 300 300 299 297 297 297 298 299 299 300 301 302 303 304 305 306 306 306 307 308 308 308 311 313 313 313 312 311 312 312 312 310 309
300 300 302 301 304 305 304 305 305 307 306 307 307 308 308 308 308 307 305 302 300 299 298 296 295 295 295 296 297 297 298 300 301 302 302 303 305 305 306 306 307 307 307 310 313 312 311 311 309 310 309 307 306 306
301 301 302 303 304 305 306 307 308 307 307 307 307 307 306 306 305 304 302 299 298 297 295 294 294 295 295 296 296 297 298 298 299 300 301 302 304 304 305 306 306 306 307 309 312 311 311 310 309 308 306 305 305 305
303 304 304 303 305 306 306 307 306 306 305 305 305 305 303 304 304 301 299 297 295 295 296 297 298 297 296 297 298 298 299 300 299 299 300 302 303 303 304 306 306 306 307 311 311 310 310 309 308 306 305 305 305 305
305 305 306 306 306 305 304 304 303 304 303 302 303 302 302 301 301 297 293 296 296 296 299 301 302 302 304 303 303 304 306 304 303 302 303 302 303 303 304 305 305 306 307 311 310 309 309 308 307 306 306 306 306 306
306 306 306 303 303 303 304 303 302 301 301 301 303 302 299 295 294 293 296 298 300 302 303 302 302 302 303 303 303 305 305 304 304 304 304 304 304 304 305 305 307 308 311 310 310 309 308 308 307 306 306 306 307 306
305 304 303 303 303 305 303 301 300 301 301 300 299 298 297 296 299 303 301 301 302 303 303 303 303 302 301 303 303 304 304 304 304 304 304 306 306 306 306 309 311 310 310 309 308 308 307 307 307 307 308 307 305 304
304 304 303 303 305 303 302 301 302 302 303 302 302 303 304 303 302 303 302 301 302 303 303 304 304 304 303 302 303 304 304 305 305 304 305 306 307 309 310 311 310 309 309 307 307 308 308 309 309 309 307 307 305 304
305 305 304 304 305 304 303 304 304 304 304 305 305 305 303 303 303 303 302 302 302 303 303 304 304 306 305 305 304 306 308 308 308 309 309 310 310 310 310 310 309 308 308 308 309 309 310 310 310 309 307 306 305 304
306 306 306 306 305 306 305 306 306 305 305 306 306 306 304 303 303 302 302 301 302 304 304 304 305 306 306 305 307 308 308 309 308 308 308 309 309 309 310 309 309 308 308 308 308 309 309 309 307 307 306 305 304 304
Wind_Speed
12 11 11 10 11 11 11 10 10 10 10 9 8 8 9 9 9 10 11 14 9 4 11 18 17 16 11 6 5 4 6 4 3 1 3 6 8 12 9 14 13 8 7 4 3 3 6 1 3 5 6 11 18 16
9 12 11 10 10 11 11 11 10 10 10 9 9 9 9 11 11 9 9 14 11 7 9 33 34 32 26 22 1 3 1 3 3 3 4 7 7 4 3 11 8 5 7 8 9 8 8 10 5 6 7 18 18 24
10 10 11 11 10 11 10 9 9 11 11 10 9 10 10 10 11 12 13 15 12 3 8 13 12 29 32 34 29 5 2 3 2 4 4 5 7 1 3 4 4 9 4 5 7 8 12 10 6 9 6 13 20 22
9 8 9 10 9 9 9 8 7 7 7 8 8 10 11 11 12 12 14 15 8 4 4 6 18 18 25 16 32 32 19 5 4 3 3 8 5 3 3 3 3 3 4 6 5 13 10 6 5 9 16 19 20 20
9 8 7 9 11 9 9 7 7 7 7 7 8 8 8 9 10 11 14 19 18 6 3 8 28 37 29 21 18 32 24 10 4 3 3 6 4 2 2 3 2 2 3 3 2 6 4 6 4 6 17 13 16 20
10 9 8 8 9 9 8 7 6 7 6 6 7 9 7 7 6 4 3 16 17 17 3 4 12 12 20 21 18 14 13 5 4 3 3 5 7 2 2 1 3 4 7 6 3 7 6 7 5 6 7 8 15 18
11 10 9 9 8 9 8 7 7 6 6 5 5 5 7 7 7 7 2 2 9 4 2 4 4 4 17 10 7 4 9 4 4 4 4 3 4 3 2 2 4 4 8 4 6 14 8 13 5 16 18 9 17 21
10 11 11 11 10 8 8 7 7 6 6 6 6 6 7 9 11 13 23 21 12 3 3 3 5 3 5 4 4 4 4 5 4 4 2 1 4 4 2 4 2 3 5 8 8 13 9 12 4 9 17 15 16 15
12 13 11 11 11 11 9 7 6 6 5 6 7 7 4 5 5 8 8 5 18 6 3 3 3 3 7 3 1 1 5 3 4 4 4 1 3 3 5 6 6 5 3 4 6 12 21 22 15 9 13 14 16 15
12 12 14 12 12 11 10 8 8 8 3 3 2 2 3 6 10 5 2 2 3 4 4 4 4 4 3 2 3 3 2 3 3 5 4 4 5 7 2 1 1 6 8 12 5 20 20 14 13 8 11 13 13 14
13 14 13 14 12 12 11 9 9 7 5 3 5 3 3 9 2 2 3 4 5 4 5 5 9 8 2 5 2 2 3 3 2 2 4 3 4 6 10 8 4 4 4 6 13 7 12 11 13 13 12 10 14 17
12 13 14 13 14 12 11 10 11 9 4 3 6 4 4 2 2 3 3 4 5 5 5 9 7 8 3 2 2 4 2 3 2 0 4 2 4 11 13 9 10 11 4 7 6 7 10 8 8 11 10 11 16 21
11 11 14 12 14 12 11 11 13 8 8 5 3 2 2 4 4 5 7 4 4 4 2 6 7 3 1 2 2 3 2 3 4 3 2 2 1 11 10 8 6 6 4 4 4 6 13 15 19 16 12 17 21 21
9 12 15 14 13 13 11 11 8 6 5 2 4 5 4 5 5 4 4 3 2 6 4 5 3 3 1 1 1 1 2 3 2 1 2 4 6 12 10 7 6 6 4 3 4 4 1 8 11 13 19 23 24 20
12 12 14 13 13 11 11 10 7 6 3 3 4 4 6 3 0 2 1 3 2 5 5 4 3 2 2 2 0 1 1 3 3 1 2 5 7 8 8 7 7 7 3 5 7 4 4 9 12 9 14 24 26 23
14 14 12 11 14 12 10 8 7 4 4 3 5 6 4 4 1 2 3 6 8 7 4 3 2 2 3 2 3 4 3 2 3 2 3 7 9 6 7 7 7 7 8 9 12 11 10 6 14 13 13 18 24 29
14 3 14 13 13 9 11 5 5 4 4 4 4 4 5 4 3 3 2 2 3 1 2 3 3 5 1 2 3 2 1 2 4 1 3 6 5 2 7 7 7 9 9 10 10 13 12 12 11 15 6 9 21 25
2 10 13 13 14 8 5 6 4 3 6 6 5 2 3 4 4 4 1 2 2 1 2 2 2 4 2 3 3 2 0 2 3 3 4 5 7 7 10 5 6 4 3 6 6 4 6 7 10 10 14 14 21 24
10 13 14 12 6 2 3 6 5 3 4 2 4 4 3 3 3 0 2 3 3 4 1 3 2 1 2 4 5 4 2 4 3 3 2 6 10 9 8 6 6 7 6 4 4 4 8 7 9 10 9 8 15 22
11 10 10 8 4 2 3 3 5 2 3 2 2 3 2 1 3 2 2 3 2 1 1 1 2 2 4 5 4 2 2 4 4 3 3 2 4 3 4 7 4 1 1 5 8 8 10 14 14 15 12 15 22 21
5 5 7 6 4 9 4 2 4 3 3 1 2 3 1 2 2 2 2 0 1 0 2 4 2 4 6 8 9 10 6 9 4 1 3 2 5 5 4 2 6 9 3 5 6 7 12 14 15 14 18 18 17 23
3 5 3 8 4 5 4 6 3 2 3 3 3 3 2 2 1 2 4 3 3 2 2 3 6 7 7 9 10 11 9 8 10 8 2 3 1 1 2 2 5 5 2 8 16 12 13 11 16 19 24 25 27 21
4 4 5 6 3 1 4 4 2 2 2 2 2 2 3 3 3 2 0 3 3 8 8 8 9 11 9 11 10 9 9 7 4 6 8 4 2 5 2 3 2 6 6 11 18 13 14 13 17 20 24 28 29 18
4 3 4 4 1 3 3 2 2 2 3 3 3 3 3 4 4 3 4 3 3 7 6 6 5 3 4 6 5 6 8 8 8 8 8 6 3 3 5 6 2 0 8 8 16 18 15 15 16 19 22 20 23 21
2 4 1 3 1 3 3 4 4 3 3 5 4 4 4 4 3 3 3 3 5 6 5 6 5 4 4 5 5 9 11 9 8 6 11 9 7 7 6 5 3 5 6 7 15 17 16 15 16 18 21 21 22 21
3 3 3 5 4 4 5 6 7 5 4 4 6 3 4 3 3 3 3 4 5 6 7 7 7 6 6 9 6 5 10 13 13 9 11 13 12 10 6 2 1 6 7 3 20 19 17 17 18 19 21 23 26 26
1 1 1 1 2 1 2 3 1 4 5 6 4 4 4 4 5 3 3 3 3 18 21 21 16 11 10 10 12 14 11 12 17 15 13 15 13 14 12 7 7 10 2 11 19 23 23 22 21 22 23 20 22 27
2 4 3 3 4 5 8 4 5 5 4 5 3 6 3 4 2 2 3 15 23 26 22 16 9 7 2 1 3 3 9 15 13 13 12 12 13 15 15 16 13 11 9 15 16 20 24 25 25 25 25 26 26 26
1 2 1 10 8 6 6 5 4 3 5 4 3 3 3 2 3 5 12 23 24 14 10 12 14 14 7 6 7 10 20 22 18 13 11 6 7 10 13 13 9 14 20 21 18 23 26 28 31 33 29 24 17 24
10 7 8 9 5 5 4 3 1 2 4 3 0 2 2 3 7 14 12 24 21 15 13 14 13 13 10 6 10 13 15 17 18 18 8 7 9 15 14 9 24 25 25 25 24 25 27 30 29 23 12 24 26 28
6 8 10 6 4 4 4 4 1 2 2 1 3 2 3 2 10 25 19 27 26 26 22 19 20 19 16 14 11 9 6 12 15 15 14 16 14 13 18 23 26 29 29 35 36 28 22 17 14 19 29 26 27 24
4 8 7 6 4 5 5 1 2 2 3 3 3 4 7 5 6 10 27 25 28 24 25 26 23 19 21 20 21 23 20 17 20 20 19 19 20 20 21 22 27 30 30 32 24 19 14 11 9 20 23 25 28 25
6 7 8 6 3 3 3 4 3 2 2 5 8 6 6 4 7 9 20 26 21 22 23 24 26 27 28 28 27 28 27 24 22 21 19 20 21 23 23 23 27 30 28 24 18 14 10 10 27 26 30 30 28 24
Wind_Direction
218 230 230 233 226 228 233 236 240 243 246 252 262 254 254 251 238 234 263 265 233 265 277 282 284 291 308 282 271 332 335 16 310 17 246 226 264 230 244 225 206 171 158 183 136 63 266 184 57 150 205 134 104 86
227 221 227 225 223 228 237 240 240 237 241 253 257 255 267 253 245 241 260 273 287 230 287 298 286 274 266 272 133 255 277 131 342 22 349 335 280 312 242 233 227 166 180 176 184 200 275 281 236 168 170 129 126 128
221 223 225 224 228 227 233 235 243 246 242 244 257 255 262 253 249 241 252 275 302 271 279 249 255 267 255 239 230 207 195 138 175 32 311 285 262 354 273 33 307 6 112 165 140 178 163 229 304 139 167 135 131 132
209 217 220 223 221 219 227 237 244 241 228 241 254 260 266 256 251 246 242 257 261 280 273 290 296 320 297 258 207 209 227 183 155 163 290 251 329 13 16 265 294 19 306 318 106 147 141 182 184 120 111 124 128 130
207 213 221 221 217 220 223 234 236 227 238 258 257 262 259 253 258 249 247 255 258 191 301 299 299 286 278 260 232 198 213 221 203 206 213 294 272 251 152 214 346 292 8 35 312 4 286 148 188 152 137 142 140 134
215 218 219 206 203 209 219 222 223 228 244 257 269 274 252 240 255 228 255 237 247 232 267 298 317 287 268 244 195 179 199 180 200 213 187 238 234 34 272 269 157 197 106 21 286 295 39 54 74 67 103 111 118 124
220 216 219 216 212 209 215 221 224 234 242 257 259 276 252 237 230 229 256 30 3 18 254 274 268 260 231 187 173 169 200 221 217 237 199 237 329 332 241 278 150 216 137 219 353 44 18 17 336 90 84 43 85 98
215 216 219 217 217 214 215 221 224 229 230 239 264 285 259 251 271 262 257 255 243 285 312 269 271 266 258 157 204 165 191 203 245 235 321 80 344 318 320 332 115 26 123 166 125 122 98 7 39 193 134 121 106 103
226 222 217 214 214 216 217 223 209 211 219 217 260 289 291 229 232 237 226 241 210 197 288 263 287 310 317 232 137 220 186 193 229 197 204 181 107 292 17 29 48 358 125 78 173 158 141 171 202 93 100 104 110 115
221 219 218 215 213 212 210 213 202 209 219 227 266 250 228 219 198 151 147 177 188 204 213 246 271 271 312 277 112 234 249 222 227 208 168 188 208 190 113 276 313 53 14 0 157 199 210 144 119 107 112 120 125 124
221 219 216 216 210 206 208 201 202 196 199 211 199 230 234 130 93 79 216 211 194 225 211 225 220 252 129 276 189 303 247 243 215 241 161 199 199 198 169 151 182 57 29 349 280 154 139 121 108 107 105 103 110 121
221 217 209 210 205 200 201 200 201 194 207 298 297 279 198 209 192 204 215 218 212 232 219 197 203 204 200 130 92 317 267 337 245 127 171 244 203 156 169 163 162 138 216 256 352 42 77 81 118 117 126 121 118 125
208 202 202 199 195 194 200 205 209 235 243 277 247 233 182 178 204 214 202 201 215 225 222 168 200 105 177 112 189 218 251 249 321 334 205 260 173 160 164 159 147 116 86 25 353 36 80 80 74 93 94 131 137 132
203 195 194 192 189 189 198 191 205 200 200 227 209 217 234 195 226 215 276 329 347 314 191 140 122 111 176 212 214 299 341 301 276 226 251 68 22 119 106 110 98 89 71 4 320 332 113 124 116 98 124 126 131 136
178 173 171 178 180 185 184 194 207 212 243 234 233 241 223 274 251 263 16 320 254 324 310 62 78 101 150 217 263 12 242 272 270 287 63 66 32 65 75 72 70 80 24 340 329 277 221 139 128 128 146 142 146 142
157 153 175 183 174 177 178 184 198 220 246 229 231 262 285 292 325 114 224 240 243 160 106 77 142 105 218 182 170 203 242 191 354 4 347 71 50 16 63 58 55 40 28 19 14 22 63 103 154 180 178 171 157 153
149 153 176 174 172 181 167 196 202 224 239 237 240 246 280 277 259 265 258 213 298 263 97 116 189 196 186 185 204 57 355 122 124 281 89 95 86 78 69 65 48 41 36 28 30 15 22 24 160 181 126 163 169 173
55 152 159 159 152 166 203 213 246 243 244 234 254 322 319 279 274 254 178 121 138 266 173 206 215 207 213 173 107 171 90 208 130 90 85 65 58 61 70 85 80 67 39 51 47 356 328 64 62 79 90 95 119 134
150 157 157 162 175 243 227 209 221 264 268 29 306 271 236 239 223 33 170 168 206 215 249 288 247 58 71 70 130 238 141 127 109 82 80 77 79 66 59 42 67 52 70 113 75 66 93 70 77 81 109 131 106 120
153 159 163 175 199 277 263 218 201 298 299 259 262 316 294 246 191 194 195 184 159 78 287 308 61 62 102 95 77 61 321 153 123 125 132 103 92 114 13 354 121 190 237 106 108 104 103 70 75 71 87 122 116 120
152 207 194 200 231 217 269 243 217 216 223 108 191 267 235 195 146 170 174 157 175 240 74 24 60 105 126 130 118 160 56 33 9 139 115 155 181 212 206 256 332 341 5 72 135 97 101 81 81 84 88 94 113 128
215 206 233 208 256 222 234 239 233 261 115 265 313 33 9 343 313 238 167 154 65 6 68 44 24 9 6 31 19 11 8 8 2 348 137 126 68 212 186 212 226 301 318 77 96 96 95 101 98 104 100 98 108 114
291 223 227 221 244 340 257 251 16 261 278 248 172 178 167 192 184 283 214 77 92 28 44 43 1 340 325 316 314 303 299 297 289 289 309 308 342 324 149 191 267 323 346 100 114 113 109 104 110 116 115 115 113 104
307 284 344 326 320 277 300 248 253 301 313 309 339 67 43 13 332 9 48 62 17 1 2 349 332 301 285 281 274 268 257 245 245 251 262 294 295 267 295 332 21 327 21 85 124 119 122 120 127 119 120 124 126 134
2 321 340 311 257 311 340 351 341 13 20 6 21 44 31 3 25 50 37 343 335 325 317 305 279 242 241 258 261 257 252 241 215 216 223 227 232 252 276 229 268 291 338 104 125 122 126 125 127 126 126 123 120 113
34 44 32 5 350 341 351 357 354 350 358 34 36 15 13 34 48 26 334 312 307 301 297 291 283 282 267 237 245 238 229 216 205 211 211 212 207 204 227 209 171 265 271 127 145 141 131 133 133 126 126 130 126 119
29 304 42 247 279 186 241 222 0 29 35 18 7 12 8 29 13 324 295 305 283 296 300 296 280 245 250 259 242 243 234 203 193 200 194 199 199 194 206 206 208 229 153 150 155 149 146 144 138 132 128 129 129 132
352 9 10 44 58 33 31 56 34 24 8 335 318 29 37 359 288 280 261 287 298 302 301 311 335 6 333 226 256 197 173 188 190 178 164 169 183 186 194 207 221 247 187 163 163 157 153 148 143 143 144 142 142 145
113 260 19 72 71 58 37 41 37 16 339 358 24 15 333 272 251 249 293 319 326 337 20 23 14 21 68 93 124 133 139 142 134 137 137 138 156 190 199 207 239 167 156 153 158 157 155 152 151 155 158 156 164 151
68 66 74 59 53 52 36 60 53 7 9 35 172 257 246 254 297 1 19 7 14 17 20 20 28 38 35 84 93 102 136 147 152 150 153 161 165 175 179 157 134 142 147 144 142 145 149 152 159 161 169 135 130 126
89 84 81 77 71 86 104 131 136 19 5 301 236 254 340 315 12 32 39 20 16 22 24 25 26 37 57 63 78 94 100 139 141 148 150 140 141 142 133 132 133 139 138 139 140 147 154 170 185 141 133 131 133 134
118 95 99 100 104 145 171 84 63 5 340 351 360 49 46 32 31 16 30 26 21 17 14 17 23 43 61 72 83 95 108 122 121 119 116 116 108 120 133 140 145 146 147 155 160 155 147 151 161 147 134 128 131 134
95 111 120 112 122 126 157 140 142 210 43 34 35 48 64 42 44 9 23 23 19 22 23 29 41 56 61 66 77 87 91 95 106 113 121 122 118 119 125 134 148 152 152 156 167 169 146 127 120 119 121 130 131 134